Location: Oshawa
(43.9000°N, 78.8670°W)
Time: 17:41:56
(UTC-04:00)

Cosmos 1805 Rocket - Visible Passes

Search period start: 22 October 2014 00:00
Search period end: 01 November 2014 00:00
Orbit: 607 x 632 km, 82.5° (Epoch: 22 October)

Date Brightness Start Highest point End Pass type
(mag) Time Alt. Az. Time Alt. Az. Time Alt. Az.
22 Oct 4.8 04:56:29 38° ENE 04:56:29 38° ENE 04:59:45 10° NNE visible
22 Oct 5.0 06:33:44 17° WNW 06:33:45 17° WNW 06:36:38 10° NNW visible
23 Oct 4.7 05:14:58 34° NNE 05:14:58 34° NNE 05:17:27 10° N visible
24 Oct 5.2 05:33:15 22° N 05:33:15 22° N 05:34:54 10° N visible
25 Oct 5.7 05:51:24 14° NNW 05:51:24 14° NNW 05:52:05 10° NNW visible
